Location: Bagnolo San Vito
(45.0833°N, 10.8833°E)
Time: 23:19:08
(UTC+00:00)

Okean 3 - Pass Details

Date: 03 March 2021
Orbit: 577 x 600 km, 82.5° (Epoch: 17 April)

Event Time Altitude Azimuth Distance (km) Brightness Sun altitude
Rises 18:36:38 0° 359° (N) 2,832 7.1 -16.6°
Reaches altitude 10° 18:38:59 10° 8° (N) 1,930 6.1 -17.1°
Maximum altitude 18:42:56 36° 75° (ENE) 953 4.0 -17.7°
Enters shadow 18:43:01 36° 78° (ENE) 954 4.0 -17.8°
